Location: Chuathbaluk
(61.5726°N, 159.2454°W)
Time: 08:10:24
(UTC+00:00)

XW-2F - Pass Details

Date: 18 January 2021
Orbit: 499 x 520 km, 97.5° (Epoch: 09 March)

Event Time Altitude Azimuth Distance (km) Brightness Sun altitude
Rises 18:11:48 0° 13° (NNE) 2,658 ? -8.4°
Reaches altitude 10° 18:14:02 10° 5° (N) 1,769 ? -8.2°
Maximum altitude 18:17:29 34° 300° (WNW) 887 ? -7.8°
Drops below altitude 10° 18:20:56 10° 235° (SW) 1,764 ? -7.4°
Sets 18:23:09 0° 226° (SW) 2,649 ? -7.2°
